OAL148 HTKJ-OMDB

Flight info

Callsign OAL148
Flight time 5h 1m
Altitude 33000
Route UTATA UT939 WAV/N0467F350 UP312 MAV G657 ASKEN DCT HARGA UB404 DEMGO B404 RIGAM B400 NODMA/N0462F370 B400 HAI R401 VELIK/N0467F360 R401 PEDOG
Aircraft A320/M-SDE3FGHIRWY/LB1

Departure

Time 2026-03-25 10:05
Airport Kilimanjaro International Airport (HTKJ)

Arrival

Time 2026-03-25 15:06
Airport Dubai International Airport (OMDB)
Time Latitude Longitude Altitude Speed Heading
2026-03-25 09:52 -3.42594 37.06518 2934 ft 0 kts 88°
2026-03-25 09:53 -3.42594 37.06517 2934 ft 0 kts 88°
2026-03-25 09:59 -3.42594 37.06522 2934 ft 1 kts 88°
2026-03-25 10:00 -3.42593 37.06536 2934 ft 3 kts 88°
2026-03-25 10:00 -3.42592 37.06560 2934 ft 4 kts 88°
2026-03-25 10:00 -3.42606 37.06587 2931 ft 5 kts 141°
2026-03-25 10:00 -3.42640 37.06594 2934 ft 5 kts 171°
2026-03-25 10:01 -3.42677 37.06594 2934 ft 5 kts 192°
2026-03-25 10:01 -3.42709 37.06574 2934 ft 5 kts 224°
2026-03-25 10:01 -3.42724 37.06540 2934 ft 5 kts 257°
2026-03-25 10:01 -3.42727 37.06504 2934 ft 5 kts 267°
2026-03-25 10:02 -3.42729 37.06469 2935 ft 5 kts 267°
2026-03-25 10:02 -3.42730 37.06434 2935 ft 5 kts 267°
2026-03-25 10:02 -3.42732 37.06391 2935 ft 10 kts 267°
2026-03-25 10:02 -3.42737 37.06298 2936 ft 15 kts 268°
2026-03-25 10:03 -3.42741 37.06196 2937 ft 15 kts 267°
2026-03-25 10:03 -3.42747 37.06094 2938 ft 15 kts 267°
2026-03-25 10:03 -3.42751 37.05991 2939 ft 15 kts 268°
2026-03-25 10:03 -3.42762 37.05893 2937 ft 14 kts 248°
2026-03-25 10:04 -3.42841 37.05840 2940 ft 15 kts 186°
2026-03-25 10:04 -3.42946 37.05842 2939 ft 16 kts 178°
2026-03-25 10:04 -3.43009 37.05916 2931 ft 17 kts 90°
2026-03-25 10:04 -3.42998 37.06183 2933 ft 73 kts 88°
2026-03-25 10:05 -3.42965 37.06911 2932 ft 133 kts 87°
2026-03-25 10:05 -3.42914 37.07996 3007 ft 172 kts 86°
2026-03-25 10:05 -3.42852 37.09166 3793 ft 166 kts 86°
2026-03-25 10:05 -3.42801 37.10320 4491 ft 166 kts 88°
2026-03-25 10:06 -3.42758 37.11477 4906 ft 171 kts 88°
2026-03-25 10:06 -3.42712 37.12730 5049 ft 190 kts 88°
2026-03-25 10:06 -3.42678 37.13649 5141 ft 202 kts 89°
2026-03-25 10:06 -3.42624 37.15109 5263 ft 223 kts 88°
2026-03-25 10:07 -3.42561 37.16748 5413 ft 247 kts 88°
2026-03-25 10:07 -3.42694 37.18529 5691 ft 266 kts 111°
2026-03-25 10:07 -3.43793 37.20019 6237 ft 274 kts 145°
2026-03-25 10:07 -3.45588 37.20644 6858 ft 280 kts 178°
2026-03-25 10:08 -3.47477 37.20172 7464 ft 288 kts 211°
2026-03-25 10:08 -3.48859 37.18725 8084 ft 294 kts 243°
2026-03-25 10:08 -3.49284 37.16730 8710 ft 298 kts 276°
2026-03-25 10:08 -3.48610 37.14782 9326 ft 300 kts 305°
2026-03-25 10:09 -3.47361 37.13097 9949 ft 303 kts 308°
2026-03-25 10:09 -3.46063 37.11385 10257 ft 319 kts 308°
2026-03-25 10:09 -3.44526 37.09699 10385 ft 338 kts 319°
2026-03-25 10:09 -3.42748 37.08069 10498 ft 357 kts 317°
2026-03-25 10:10 -3.40944 37.06276 10614 ft 374 kts 316°
2026-03-25 10:10 -3.38965 37.04518 10783 ft 387 kts 324°
2026-03-25 10:10 -3.36683 37.03055 11207 ft 392 kts 330°
2026-03-25 10:10 -3.34299 37.01695 11723 ft 395 kts 332°
2026-03-25 10:11 -3.31869 37.00392 12207 ft 398 kts 334°
2026-03-25 10:11 -3.29405 36.99117 12693 ft 400 kts 334°
2026-03-25 10:11 -3.26915 36.97842 13171 ft 403 kts 334°
2026-03-25 10:11 -3.24413 36.96561 13636 ft 406 kts 334°
2026-03-25 10:12 -3.21884 36.95256 14084 ft 409 kts 334°
2026-03-25 10:12 -3.19359 36.93933 14494 ft 412 kts 333°
2026-03-25 10:12 -3.16795 36.92631 14915 ft 414 kts 338°
2026-03-25 10:12 -3.14060 36.91746 15318 ft 414 kts 349°
2026-03-25 10:13 -3.11199 36.91414 15718 ft 415 kts
2026-03-25 10:13 -3.08318 36.91663 16111 ft 416 kts 12°
2026-03-25 10:13 -3.05538 36.92443 16505 ft 417 kts 19°
2026-03-25 10:13 -3.02768 36.93343 16923 ft 419 kts 19°
2026-03-25 10:14 -2.99983 36.94237 17322 ft 422 kts 19°
2026-03-25 10:14 -2.97217 36.95117 17698 ft 424 kts 19°
2026-03-25 10:14 -2.94390 36.96012 18080 ft 427 kts 19°
2026-03-25 10:14 -2.91551 36.96910 18448 ft 429 kts 19°
2026-03-25 10:15 -2.88698 36.97816 18775 ft 431 kts 19°
2026-03-25 10:15 -2.85839 36.98732 19127 ft 433 kts 19°
2026-03-25 10:15 -2.82967 36.99657 19473 ft 434 kts 19°
2026-03-25 10:15 -2.80080 37.00584 19808 ft 436 kts 19°
2026-03-25 10:16 -2.77184 37.01510 20142 ft 437 kts 19°
2026-03-25 10:16 -2.74281 37.02435 20472 ft 439 kts 19°
2026-03-25 10:16 -2.71359 37.03364 20813 ft 441 kts 19°
2026-03-25 10:16 -2.68507 37.04468 21115 ft 441 kts 27°
2026-03-25 10:17 -2.65861 37.06008 21414 ft 441 kts 34°
2026-03-25 10:17 -2.60708 37.09380 22010 ft 444 kts 34°
2026-03-25 10:17 -2.58111 37.11075 22298 ft 446 kts 34°
2026-03-25 10:18 -2.55501 37.12776 22581 ft 447 kts 34°
2026-03-25 10:18 -2.52924 37.14456 22825 ft 449 kts 34°
2026-03-25 10:18 -2.47673 37.17876 23359 ft 453 kts 34°
2026-03-25 10:19 -2.42387 37.21316 23937 ft 453 kts 34°
2026-03-25 10:19 -2.37112 37.24751 24492 ft 452 kts 34°
2026-03-25 10:20 -2.34477 37.26470 24792 ft 452 kts 34°
2026-03-25 10:20 -2.29203 37.29908 25347 ft 452 kts 34°
2026-03-25 10:20 -2.26567 37.31628 25638 ft 452 kts 34°
2026-03-25 10:21 -2.21308 37.35071 26241 ft 452 kts 34°
2026-03-25 10:21 -2.18684 37.36812 26545 ft 452 kts 34°
2026-03-25 10:21 -2.16070 37.38554 26849 ft 452 kts 35°
2026-03-25 10:22 -2.13457 37.40295 27158 ft 451 kts 34°
2026-03-25 10:22 -2.10841 37.42033 27481 ft 451 kts 34°
2026-03-25 10:22 -2.08224 37.43765 27801 ft 451 kts 34°
2026-03-25 10:23 -2.03023 37.47208 28439 ft 451 kts 34°
2026-03-25 10:23 -2.00415 37.48939 28780 ft 451 kts 35°
2026-03-25 10:23 -1.97804 37.50673 29128 ft 450 kts 35°
2026-03-25 10:24 -1.92590 37.54134 29834 ft 450 kts 34°
2026-03-25 10:24 -1.89978 37.55863 30181 ft 450 kts 35°
2026-03-25 10:24 -1.87371 37.57589 30477 ft 449 kts 35°
2026-03-25 10:24 -1.84760 37.59319 30777 ft 449 kts 35°
2026-03-25 10:25 -1.82156 37.61043 31065 ft 449 kts 35°
2026-03-25 10:25 -1.79552 37.62770 31370 ft 449 kts 35°
2026-03-25 10:25 -1.76954 37.64496 31678 ft 449 kts 35°
2026-03-25 10:26 -1.71802 37.68019 32290 ft 448 kts 36°
2026-03-25 10:26 -1.69249 37.69802 32599 ft 448 kts 36°
2026-03-25 10:26 -1.66692 37.71593 32909 ft 448 kts 36°
2026-03-25 10:26 -1.64140 37.73374 33220 ft 448 kts 36°
2026-03-25 10:27 -1.61583 37.75151 33531 ft 447 kts 36°
2026-03-25 10:27 -1.59058 37.76901 33818 ft 447 kts 36°
2026-03-25 10:27 -1.56497 37.78670 34091 ft 447 kts 36°
2026-03-25 10:27 -1.53936 37.80438 34341 ft 447 kts 36°
2026-03-25 10:28 -1.51377 37.82209 34586 ft 446 kts 36°
2026-03-25 10:28 -1.48823 37.83975 34841 ft 446 kts 36°
2026-03-25 10:28 -1.46273 37.85740 35006 ft 446 kts 36°
2026-03-25 10:28 -1.43716 37.87513 35040 ft 451 kts 36°
2026-03-25 10:29 -1.38493 37.91134 35042 ft 463 kts 36°
2026-03-25 10:29 -1.35840 37.92975 35043 ft 466 kts 36°
2026-03-25 10:30 -1.25129 38.00377 35039 ft 468 kts 36°
2026-03-25 10:31 -1.19779 38.04082 35038 ft 468 kts 36°
2026-03-25 10:31 -1.14415 38.07789 35027 ft 469 kts 36°
2026-03-25 10:32 -1.09053 38.11505 35029 ft 469 kts 36°
2026-03-25 10:32 -1.03687 38.15218 35019 ft 469 kts 36°
2026-03-25 10:33 -0.98318 38.18929 35014 ft 469 kts 36°
2026-03-25 10:33 -0.92951 38.22646 35013 ft 469 kts 36°
2026-03-25 10:34 -0.87625 38.26342 35010 ft 469 kts 36°
2026-03-25 10:34 -0.82255 38.30048 34996 ft 469 kts 36°
2026-03-25 10:35 -0.76879 38.33762 34992 ft 469 kts 36°
2026-03-25 10:35 -0.71512 38.37478 34981 ft 469 kts 36°
2026-03-25 10:36 -0.66137 38.41199 34974 ft 469 kts 36°
2026-03-25 10:36 -0.60771 38.44917 34964 ft 469 kts 36°
2026-03-25 10:37 -0.55404 38.48633 34959 ft 469 kts 36°
2026-03-25 10:37 -0.50061 38.52328 34952 ft 470 kts 36°
2026-03-25 10:38 -0.44681 38.56034 34944 ft 470 kts 36°
2026-03-25 10:38 -0.39307 38.59754 34934 ft 470 kts 36°
2026-03-25 10:39 -0.33945 38.63474 34923 ft 470 kts 36°
2026-03-25 10:39 -0.28563 38.67194 34918 ft 470 kts 36°
2026-03-25 10:40 -0.23190 38.70909 34906 ft 470 kts 36°
2026-03-25 10:40 -0.17813 38.74634 34901 ft 470 kts 36°
2026-03-25 10:41 -0.12433 38.78349 34895 ft 470 kts 36°
2026-03-25 10:41 -0.07057 38.82064 34886 ft 470 kts 36°
2026-03-25 10:42 -0.01675 38.85787 34879 ft 471 kts 36°
2026-03-25 10:42 0.03673 38.89500 34884 ft 471 kts 35°
2026-03-25 10:43 0.09055 38.93227 34869 ft 471 kts 35°
2026-03-25 10:43 0.14453 38.96952 34875 ft 471 kts 35°
2026-03-25 10:44 0.19846 39.00670 34863 ft 472 kts 35°
2026-03-25 10:44 0.25284 39.04423 34872 ft 472 kts 35°
2026-03-25 10:45 0.30657 39.08138 34858 ft 472 kts 35°
2026-03-25 10:45 0.36050 39.11878 34856 ft 472 kts 35°
2026-03-25 10:46 0.41443 39.15616 34853 ft 472 kts 35°
2026-03-25 10:46 0.46848 39.19354 34858 ft 472 kts 35°
2026-03-25 10:47 0.52255 39.23086 34855 ft 472 kts 35°
2026-03-25 10:47 0.57659 39.26818 34857 ft 472 kts 35°
2026-03-25 10:48 0.63061 39.30566 34856 ft 472 kts 35°
2026-03-25 10:48 0.68456 39.34311 34850 ft 472 kts 35°
2026-03-25 10:49 0.73864 39.38047 34850 ft 472 kts 35°
2026-03-25 10:49 0.79266 39.41778 34853 ft 472 kts 35°
2026-03-25 10:50 0.84666 39.45511 34850 ft 472 kts 35°
2026-03-25 10:50 0.90065 39.49249 34846 ft 472 kts 35°
2026-03-25 10:51 0.95465 39.52987 34849 ft 472 kts 35°
2026-03-25 10:51 1.00855 39.56729 34852 ft 472 kts 35°
2026-03-25 10:52 1.06237 39.60493 34853 ft 472 kts 35°
2026-03-25 10:52 1.11620 39.64255 34860 ft 472 kts 35°
2026-03-25 10:53 1.17019 39.68010 34860 ft 472 kts 35°
2026-03-25 10:53 1.22407 39.71759 34844 ft 472 kts 35°
2026-03-25 10:54 1.26879 39.74882 34858 ft 472 kts 35°
2026-03-25 10:54 1.32251 39.78643 34849 ft 472 kts 35°
2026-03-25 10:55 1.37640 39.82407 34845 ft 472 kts 35°
2026-03-25 10:55 1.43019 39.86151 34842 ft 471 kts 35°
2026-03-25 10:56 1.48405 39.89897 34843 ft 472 kts 35°
2026-03-25 10:56 1.53784 39.93652 34848 ft 472 kts 35°
2026-03-25 10:57 1.59167 39.97409 34846 ft 471 kts 35°
2026-03-25 10:57 1.64541 40.01159 34849 ft 471 kts 35°
2026-03-25 10:58 1.69916 40.04906 34855 ft 471 kts 35°
2026-03-25 10:58 1.75279 40.08662 34850 ft 471 kts 36°
2026-03-25 10:59 1.80457 40.12654 34846 ft 470 kts 40°
2026-03-25 10:59 1.85494 40.16819 34849 ft 469 kts 40°
2026-03-25 11:00 1.90510 40.20937 34850 ft 469 kts 39°
2026-03-25 11:00 1.95602 40.25018 34847 ft 469 kts 39°
2026-03-25 11:01 2.00706 40.29078 34854 ft 469 kts 39°
2026-03-25 11:01 2.05808 40.33147 34844 ft 469 kts 39°
2026-03-25 11:02 2.10890 40.37223 34855 ft 469 kts 39°
2026-03-25 11:02 2.15979 40.41307 34848 ft 469 kts 39°
2026-03-25 11:03 2.21066 40.45380 34845 ft 469 kts 39°
2026-03-25 11:03 2.26155 40.49454 34839 ft 469 kts 39°
2026-03-25 11:04 2.31246 40.53538 34848 ft 469 kts 39°
2026-03-25 11:04 2.36328 40.57612 34855 ft 469 kts 39°
2026-03-25 11:05 2.41385 40.61666 34857 ft 468 kts 39°
2026-03-25 11:05 2.46432 40.65782 34852 ft 468 kts 39°
2026-03-25 11:06 2.51465 40.69902 34854 ft 467 kts 39°
2026-03-25 11:06 2.56498 40.74017 34851 ft 467 kts 39°
2026-03-25 11:07 2.61524 40.78120 34852 ft 467 kts 39°
2026-03-25 11:07 2.66561 40.82231 34847 ft 467 kts 39°
2026-03-25 11:08 2.71597 40.86339 34848 ft 467 kts 39°
2026-03-25 11:08 2.76634 40.90444 34844 ft 467 kts 39°
2026-03-25 11:09 2.81636 40.94525 34847 ft 467 kts 39°
2026-03-25 11:09 2.86670 40.98635 34848 ft 467 kts 39°
2026-03-25 11:10 2.91696 41.02739 34841 ft 466 kts 39°
2026-03-25 11:10 2.96722 41.06838 34844 ft 466 kts 39°
2026-03-25 11:11 3.01744 41.10935 34843 ft 466 kts 39°
2026-03-25 11:11 3.06757 41.15033 34847 ft 465 kts 39°
2026-03-25 11:12 3.11737 41.19109 34844 ft 465 kts 39°
2026-03-25 11:12 3.16742 41.23203 34837 ft 465 kts 39°
2026-03-25 11:13 3.21751 41.27293 34847 ft 465 kts 39°
2026-03-25 11:13 3.26757 41.31383 34834 ft 465 kts 39°
2026-03-25 11:14 3.31771 41.35481 34840 ft 465 kts 39°
2026-03-25 11:14 3.36783 41.39577 34836 ft 465 kts 39°
2026-03-25 11:15 3.41790 41.43666 34837 ft 465 kts 39°
2026-03-25 11:15 3.46804 41.47763 34835 ft 465 kts 39°
2026-03-25 11:16 3.51814 41.51859 34828 ft 465 kts 39°
2026-03-25 11:16 3.56813 41.55949 34837 ft 464 kts 39°
2026-03-25 11:17 3.61817 41.60040 34837 ft 464 kts 39°
2026-03-25 11:17 3.66812 41.64133 34826 ft 464 kts 39°
2026-03-25 11:18 3.71809 41.68218 34829 ft 463 kts 39°
2026-03-25 11:18 3.76764 41.72274 34827 ft 463 kts 39°
2026-03-25 11:19 3.81743 41.76351 34832 ft 462 kts 39°
2026-03-25 11:19 3.89199 41.82463 34821 ft 462 kts 39°
2026-03-25 11:20 3.94341 41.86310 34816 ft 461 kts 29°
2026-03-25 11:20 4.00224 41.88865 34796 ft 462 kts 21°
2026-03-25 11:21 4.06215 41.91223 34794 ft 463 kts 21°
2026-03-25 11:21 4.12209 41.93600 34799 ft 464 kts 21°
2026-03-25 11:22 4.18217 41.95976 34810 ft 464 kts 21°
2026-03-25 11:22 4.24186 41.98338 34806 ft 464 kts 21°
2026-03-25 11:23 4.30195 42.00711 34812 ft 464 kts 21°
2026-03-25 11:23 4.36198 42.03088 34811 ft 464 kts 21°
2026-03-25 11:24 4.42209 42.05464 34819 ft 464 kts 21°
2026-03-25 11:24 4.48218 42.07842 34818 ft 465 kts 21°
2026-03-25 11:25 4.54236 42.10225 34823 ft 465 kts 21°
2026-03-25 11:25 4.60251 42.12612 34819 ft 465 kts 21°
2026-03-25 11:26 4.66271 42.14999 34828 ft 465 kts 21°
2026-03-25 11:26 4.72259 42.17363 34814 ft 466 kts 21°
2026-03-25 11:27 4.78284 42.19748 34816 ft 466 kts 21°
2026-03-25 11:27 4.84312 42.22140 34820 ft 466 kts 21°
2026-03-25 11:28 4.90345 42.24530 34824 ft 466 kts 21°
2026-03-25 11:28 4.96382 42.26922 34823 ft 467 kts 21°
2026-03-25 11:29 5.02429 42.29319 34823 ft 467 kts 21°
2026-03-25 11:29 5.08472 42.31716 34824 ft 467 kts 21°
2026-03-25 11:30 5.14521 42.34118 34813 ft 467 kts 20°
2026-03-25 11:30 5.20578 42.36519 34829 ft 468 kts 21°
2026-03-25 11:31 5.26625 42.38919 34836 ft 468 kts 20°
2026-03-25 11:31 5.32685 42.41326 34825 ft 468 kts 20°
2026-03-25 11:32 5.38749 42.43733 34837 ft 468 kts 20°
2026-03-25 11:32 5.44776 42.46124 34844 ft 469 kts 20°
2026-03-25 11:33 5.50848 42.48533 34839 ft 470 kts 20°
2026-03-25 11:33 5.56928 42.50949 34842 ft 470 kts 20°
2026-03-25 11:34 5.63014 42.53367 34845 ft 470 kts 20°
2026-03-25 11:34 5.69100 42.55781 34842 ft 470 kts 20°
2026-03-25 11:35 5.75183 42.58197 34841 ft 470 kts 20°
2026-03-25 11:35 5.81275 42.60617 34849 ft 470 kts 20°
2026-03-25 11:36 5.87355 42.63044 34842 ft 470 kts 20°
2026-03-25 11:36 5.93335 42.65423 34843 ft 470 kts 20°
2026-03-25 11:37 5.99411 42.67835 34834 ft 469 kts 20°
2026-03-25 11:37 6.05485 42.70248 34835 ft 469 kts 20°
2026-03-25 11:38 6.11544 42.72658 34833 ft 468 kts 20°
2026-03-25 11:38 6.17608 42.75072 34827 ft 468 kts 20°
2026-03-25 11:39 6.23662 42.77486 34828 ft 468 kts 20°
2026-03-25 11:39 6.29671 42.79889 34831 ft 468 kts 20°
2026-03-25 11:40 6.35730 42.82302 34840 ft 468 kts 20°
2026-03-25 11:40 6.41781 42.84701 34835 ft 467 kts 20°
2026-03-25 11:41 6.47833 42.87110 34832 ft 467 kts 20°
2026-03-25 11:41 6.53866 42.89524 34840 ft 467 kts 20°
2026-03-25 11:42 6.59917 42.91938 34847 ft 467 kts 20°
2026-03-25 11:42 6.65965 42.94344 34852 ft 467 kts 20°
2026-03-25 11:43 6.72008 42.96750 34843 ft 467 kts 20°
2026-03-25 11:43 6.77032 42.98763 34843 ft 467 kts 20°
2026-03-25 11:44 6.83074 43.01184 34846 ft 467 kts 20°
2026-03-25 11:44 6.89128 43.03590 34853 ft 467 kts 20°
2026-03-25 11:45 6.95174 43.06001 34851 ft 467 kts 20°
2026-03-25 11:45 7.01176 43.08409 34851 ft 467 kts 20°
2026-03-25 11:46 7.07213 43.10846 34863 ft 467 kts 20°
2026-03-25 11:46 7.13244 43.13281 34856 ft 467 kts 20°
2026-03-25 11:47 7.19270 43.15711 34861 ft 467 kts 20°
2026-03-25 11:47 7.25304 43.18144 34857 ft 467 kts 20°
2026-03-25 11:48 7.31335 43.20587 34874 ft 467 kts 20°
2026-03-25 11:48 7.37359 43.23026 34874 ft 466 kts 20°
2026-03-25 11:49 7.43389 43.25450 34870 ft 466 kts 20°
2026-03-25 11:49 7.49409 43.27881 34880 ft 466 kts 20°
2026-03-25 11:50 7.55429 43.30319 34880 ft 466 kts 20°
2026-03-25 11:50 7.61446 43.32753 34879 ft 466 kts 20°
2026-03-25 11:51 7.67456 43.35185 34874 ft 465 kts 20°
2026-03-25 11:51 7.73464 43.37615 34869 ft 465 kts 20°
2026-03-25 11:52 7.79430 43.40030 34863 ft 465 kts 20°
2026-03-25 11:52 7.85424 43.42453 34869 ft 464 kts 20°
2026-03-25 11:53 7.91426 43.44889 34874 ft 464 kts 20°
2026-03-25 11:53 7.97418 43.47315 34865 ft 464 kts 20°
2026-03-25 11:54 8.03408 43.49743 34881 ft 464 kts 20°
2026-03-25 11:54 8.09396 43.52171 34878 ft 464 kts 20°
2026-03-25 11:55 8.15387 43.54602 34867 ft 464 kts 20°
2026-03-25 11:55 8.21382 43.57034 34864 ft 464 kts 20°
2026-03-25 11:56 8.27382 43.59468 34881 ft 465 kts 20°
2026-03-25 11:56 8.33387 43.61904 34872 ft 465 kts 20°
2026-03-25 11:57 8.39394 43.64337 34882 ft 465 kts 20°
2026-03-25 11:57 8.45398 43.66770 34869 ft 465 kts 20°
2026-03-25 11:58 8.51400 43.69215 34872 ft 465 kts 20°
2026-03-25 11:58 8.57368 43.71648 34870 ft 465 kts 20°
2026-03-25 11:59 8.63373 43.74088 34865 ft 466 kts 20°
2026-03-25 11:59 8.69391 43.76537 34867 ft 466 kts 20°
2026-03-25 12:00 8.75411 43.78981 34871 ft 466 kts 20°
2026-03-25 12:00 8.81434 43.81424 34871 ft 466 kts 20°
2026-03-25 12:01 8.87454 43.83876 34873 ft 467 kts 20°
2026-03-25 12:01 8.93474 43.86337 34871 ft 467 kts 20°
2026-03-25 12:02 8.99498 43.88788 34866 ft 467 kts 20°
2026-03-25 12:02 9.05519 43.91240 34866 ft 467 kts 20°
2026-03-25 12:03 9.11551 43.93692 34855 ft 467 kts 19°
2026-03-25 12:03 9.17620 43.96030 34853 ft 467 kts 18°
2026-03-25 12:04 9.23720 43.98301 34856 ft 467 kts 18°
2026-03-25 12:04 9.29817 44.00595 34850 ft 467 kts 18°
2026-03-25 12:05 9.35874 44.02906 34847 ft 468 kts 18°
2026-03-25 12:05 9.41965 44.05236 34844 ft 468 kts 18°
2026-03-25 12:06 9.48008 44.07704 34833 ft 470 kts 26°
2026-03-25 12:06 9.53204 44.11735 34826 ft 475 kts 46°
2026-03-25 12:07 9.56930 44.17282 34820 ft 478 kts 58°
2026-03-25 12:07 9.60275 44.23111 34812 ft 479 kts 58°
2026-03-25 12:08 9.63639 44.28943 34810 ft 480 kts 58°
2026-03-25 12:08 9.67012 44.34773 34808 ft 480 kts 58°
2026-03-25 12:09 9.70364 44.40591 34809 ft 481 kts 58°
2026-03-25 12:09 9.73732 44.46448 34810 ft 481 kts 58°
2026-03-25 12:10 9.77100 44.52312 34813 ft 481 kts 58°
2026-03-25 12:10 9.80465 44.58184 34816 ft 482 kts 58°
2026-03-25 12:11 9.83843 44.64064 34820 ft 482 kts 58°
2026-03-25 12:11 9.87227 44.69934 34826 ft 482 kts 58°
2026-03-25 12:12 9.90602 44.75816 34828 ft 483 kts 58°
2026-03-25 12:12 9.93974 44.81711 34832 ft 483 kts 58°
2026-03-25 12:13 9.97353 44.87598 34834 ft 483 kts 58°
2026-03-25 12:13 10.00739 44.93495 34839 ft 483 kts 58°
2026-03-25 12:14 10.04124 44.99392 34839 ft 484 kts 58°
2026-03-25 12:14 10.07477 45.05262 34838 ft 484 kts 58°
2026-03-25 12:15 10.10851 45.11155 34843 ft 483 kts 58°
2026-03-25 12:15 10.14227 45.17052 34841 ft 483 kts 58°
2026-03-25 12:16 10.17595 45.22949 34829 ft 483 kts 58°
2026-03-25 12:16 10.20958 45.28851 34823 ft 483 kts 58°
2026-03-25 12:17 10.24321 45.34756 34814 ft 483 kts 58°
2026-03-25 12:17 10.27694 45.40663 34798 ft 483 kts 58°
2026-03-25 12:18 10.31073 45.46572 34791 ft 484 kts 58°
2026-03-25 12:18 10.34445 45.52480 34789 ft 484 kts 58°
2026-03-25 12:19 10.37815 45.58403 34783 ft 484 kts 58°
2026-03-25 12:19 10.41158 45.64289 34781 ft 484 kts 58°
2026-03-25 12:20 10.44559 45.70237 34784 ft 484 kts 58°
2026-03-25 12:20 10.47916 45.76128 34784 ft 485 kts 58°
2026-03-25 12:21 10.51283 45.82070 34794 ft 485 kts 58°
2026-03-25 12:22 10.56339 45.90972 34799 ft 484 kts 58°
2026-03-25 12:22 10.59703 45.96903 34808 ft 484 kts 58°
2026-03-25 12:23 10.63070 46.02828 34801 ft 484 kts 58°
2026-03-25 12:23 10.66429 46.08751 34797 ft 484 kts 58°
2026-03-25 12:24 10.69783 46.14681 34794 ft 484 kts 58°
2026-03-25 12:24 10.73147 46.20615 34786 ft 484 kts 57°
2026-03-25 12:25 10.76493 46.26494 34782 ft 484 kts 57°
2026-03-25 12:25 10.79850 46.32434 34778 ft 484 kts 58°
2026-03-25 12:26 10.83221 46.38367 34773 ft 484 kts 57°
2026-03-25 12:26 10.86646 46.44275 34774 ft 485 kts 57°
2026-03-25 12:27 10.90080 46.50181 34772 ft 485 kts 57°
2026-03-25 12:27 10.93501 46.56100 34779 ft 485 kts 57°
2026-03-25 12:28 10.96919 46.62028 34782 ft 485 kts 57°
2026-03-25 12:28 11.00330 46.67955 34784 ft 485 kts 57°
2026-03-25 12:29 11.03749 46.73878 34786 ft 485 kts 57°
2026-03-25 12:29 11.07150 46.79796 34785 ft 484 kts 57°
2026-03-25 12:30 11.10555 46.85719 34785 ft 484 kts 57°
2026-03-25 12:30 11.13940 46.91603 34784 ft 484 kts 57°
2026-03-25 12:31 11.17345 46.97515 34786 ft 484 kts 57°
2026-03-25 12:31 11.20748 47.03437 34784 ft 484 kts 57°
2026-03-25 12:32 11.24143 47.09357 34786 ft 484 kts 57°
2026-03-25 12:32 11.27536 47.15273 34784 ft 484 kts 57°
2026-03-25 12:33 11.30355 47.20192 34784 ft 484 kts 57°
2026-03-25 12:33 11.33743 47.26116 34784 ft 484 kts 57°
2026-03-25 12:34 11.37130 47.32050 34782 ft 484 kts 57°
2026-03-25 12:34 11.40517 47.37967 34784 ft 484 kts 57°
2026-03-25 12:35 11.43913 47.43890 34783 ft 483 kts 57°
2026-03-25 12:35 11.47310 47.49802 34779 ft 484 kts 57°
2026-03-25 12:36 11.50698 47.55731 34781 ft 484 kts 57°
2026-03-25 12:36 11.54058 47.61629 34782 ft 484 kts 57°
2026-03-25 12:37 11.57449 47.67567 34785 ft 484 kts 57°
2026-03-25 12:37 11.60839 47.73502 34784 ft 484 kts 57°
2026-03-25 12:38 11.64225 47.79439 34783 ft 484 kts 57°
2026-03-25 12:38 11.67621 47.85388 34783 ft 485 kts 57°
2026-03-25 12:39 11.71007 47.91342 34785 ft 485 kts 57°
2026-03-25 12:39 11.74399 47.97295 34787 ft 486 kts 57°
2026-03-25 12:40 11.77793 48.03256 34787 ft 486 kts 57°
2026-03-25 12:40 11.81183 48.09229 34790 ft 486 kts 57°
2026-03-25 12:41 11.84574 48.15197 34791 ft 486 kts 57°
2026-03-25 12:41 11.87963 48.21159 34788 ft 486 kts 57°
2026-03-25 12:42 11.91355 48.27129 34788 ft 486 kts 57°
2026-03-25 12:42 11.94744 48.33109 34788 ft 486 kts 57°
2026-03-25 12:43 11.98134 48.39093 34786 ft 486 kts 57°
2026-03-25 12:43 12.01524 48.45076 34785 ft 486 kts 57°
2026-03-25 12:44 12.04912 48.51056 34783 ft 486 kts 57°
2026-03-25 12:44 12.08313 48.56976 34780 ft 486 kts 56°
2026-03-25 12:45 12.11783 48.62908 34779 ft 486 kts 56°
2026-03-25 12:45 12.15260 48.68843 34782 ft 486 kts 56°
2026-03-25 12:46 12.18716 48.74786 34781 ft 486 kts 56°
2026-03-25 12:46 12.22169 48.80739 34781 ft 486 kts 56°
2026-03-25 12:47 12.25625 48.86691 34780 ft 486 kts 56°
2026-03-25 12:47 12.29080 48.92637 34776 ft 487 kts 56°
2026-03-25 12:48 12.32534 48.98592 34775 ft 487 kts 56°
2026-03-25 12:48 12.35988 49.04552 34776 ft 487 kts 56°
2026-03-25 12:49 12.39437 49.10514 34774 ft 487 kts 56°
2026-03-25 12:49 12.42886 49.16485 34770 ft 488 kts 56°
2026-03-25 12:50 12.46320 49.22425 34775 ft 488 kts 55°
2026-03-25 12:50 12.49783 49.28398 34771 ft 488 kts 55°
2026-03-25 12:51 12.53234 49.34380 34771 ft 488 kts 56°
2026-03-25 12:51 12.56680 49.40371 34771 ft 488 kts 55°
2026-03-25 12:52 12.60133 49.46360 34772 ft 489 kts 55°
2026-03-25 12:52 12.63586 49.52354 34776 ft 489 kts 55°
2026-03-25 12:53 12.67043 49.58349 34773 ft 489 kts 55°
2026-03-25 12:53 12.70496 49.64351 34778 ft 489 kts 55°
2026-03-25 12:54 12.73951 49.70361 34776 ft 489 kts 55°
2026-03-25 12:54 12.77410 49.76364 34778 ft 490 kts 55°
2026-03-25 12:55 12.80871 49.82380 34777 ft 490 kts 55°
2026-03-25 12:55 12.84297 49.88361 34775 ft 490 kts 55°
2026-03-25 12:56 12.87751 49.94387 34782 ft 490 kts 55°
2026-03-25 12:56 12.91207 50.00409 34782 ft 490 kts 55°
2026-03-25 12:57 12.94662 50.06440 34785 ft 490 kts 55°
2026-03-25 12:57 12.98127 50.12480 34786 ft 491 kts 55°
2026-03-25 12:58 13.01575 50.18516 34792 ft 491 kts 55°
2026-03-25 12:58 13.05029 50.24557 34790 ft 491 kts 55°
2026-03-25 12:59 13.08490 50.30603 34795 ft 491 kts 55°
2026-03-25 12:59 13.11943 50.36644 34797 ft 491 kts 55°
2026-03-25 13:00 13.15386 50.42696 34797 ft 491 kts 55°
2026-03-25 13:00 13.18830 50.48742 34796 ft 491 kts 55°
2026-03-25 13:01 13.22252 50.54744 34795 ft 491 kts 55°
2026-03-25 13:01 13.25682 50.60797 34799 ft 491 kts 55°
2026-03-25 13:02 13.29108 50.66855 34800 ft 491 kts 55°
2026-03-25 13:02 13.32534 50.72905 34801 ft 490 kts 55°
2026-03-25 13:03 13.35956 50.78966 34803 ft 490 kts 55°
2026-03-25 13:03 13.39380 50.85032 34802 ft 490 kts 55°
2026-03-25 13:04 13.42805 50.91093 34805 ft 490 kts 54°
2026-03-25 13:04 13.46231 50.97154 34814 ft 490 kts 55°
2026-03-25 13:05 13.49645 51.03214 34811 ft 490 kts 55°
2026-03-25 13:05 13.53055 51.09274 34807 ft 490 kts 54°
2026-03-25 13:06 13.56471 51.15326 34808 ft 489 kts 54°
2026-03-25 13:06 13.59859 51.21344 34811 ft 489 kts 54°
2026-03-25 13:07 13.63267 51.27407 34813 ft 489 kts 54°
2026-03-25 13:07 13.66676 51.33460 34813 ft 489 kts 54°
2026-03-25 13:08 13.70076 51.39523 34811 ft 489 kts 54°
2026-03-25 13:08 13.73469 51.45580 34816 ft 489 kts 54°
2026-03-25 13:09 13.76883 51.51630 34814 ft 489 kts 54°
2026-03-25 13:09 13.80366 51.57627 34815 ft 488 kts 53°
2026-03-25 13:10 13.83864 51.63619 34815 ft 489 kts 53°
2026-03-25 13:10 13.87338 51.69629 34820 ft 489 kts 54°
2026-03-25 13:11 13.90803 51.75659 34815 ft 489 kts 54°
2026-03-25 13:11 13.94268 51.81686 34820 ft 490 kts 54°
2026-03-25 13:12 13.97741 51.87726 34817 ft 490 kts 54°
2026-03-25 13:12 14.01213 51.93766 34817 ft 490 kts 54°
2026-03-25 13:13 14.04696 51.99803 34818 ft 490 kts 54°
2026-03-25 13:13 14.08166 52.05847 34818 ft 491 kts 54°
2026-03-25 13:14 14.11614 52.11866 34820 ft 491 kts 54°
2026-03-25 13:14 14.15083 52.17928 34819 ft 491 kts 54°
2026-03-25 13:15 14.18551 52.23992 34823 ft 491 kts 54°
2026-03-25 13:15 14.22029 52.30058 34821 ft 491 kts 53°
2026-03-25 13:16 14.25509 52.36126 34820 ft 492 kts 54°
2026-03-25 13:16 14.28982 52.42209 34821 ft 492 kts 54°
2026-03-25 13:17 14.32453 52.48283 34820 ft 492 kts 54°
2026-03-25 13:17 14.35928 52.54370 34822 ft 492 kts 54°
2026-03-25 13:18 14.39391 52.60461 34822 ft 492 kts 54°
2026-03-25 13:18 14.42860 52.66554 34822 ft 492 kts 53°
2026-03-25 13:19 14.46318 52.72609 34822 ft 492 kts 53°
2026-03-25 13:19 14.49786 52.78703 34822 ft 493 kts 53°
2026-03-25 13:20 14.53257 52.84807 34821 ft 493 kts 53°
2026-03-25 13:20 14.56722 52.90909 34824 ft 493 kts 53°
2026-03-25 13:21 14.59614 52.96001 34822 ft 493 kts 53°
2026-03-25 13:21 14.63088 53.02111 34826 ft 493 kts 53°
2026-03-25 13:22 14.67320 53.07505 34823 ft 477 kts 35°
2026-03-25 13:22 14.72655 53.11373 34818 ft 466 kts 24°
2026-03-25 13:23 14.78184 53.14873 34828 ft 467 kts 25°
2026-03-25 13:23 14.83710 53.18402 34829 ft 467 kts 25°
2026-03-25 13:24 14.92006 53.23713 34834 ft 468 kts 25°
2026-03-25 13:24 14.97546 53.27254 34838 ft 468 kts 24°
2026-03-25 13:25 15.03049 53.30762 34841 ft 468 kts 24°
2026-03-25 13:25 15.08590 53.34296 34843 ft 468 kts 24°
2026-03-25 13:26 15.14132 53.37834 34846 ft 468 kts 24°
2026-03-25 13:26 15.19660 53.41380 34848 ft 467 kts 24°
2026-03-25 13:27 15.25188 53.44921 34843 ft 467 kts 24°
2026-03-25 13:27 15.30711 53.48472 34841 ft 467 kts 24°
2026-03-25 13:28 15.36230 53.52015 34841 ft 467 kts 24°
2026-03-25 13:28 15.41751 53.55553 34841 ft 467 kts 24°
2026-03-25 13:29 15.47262 53.59120 34842 ft 468 kts 25°
2026-03-25 13:29 15.52735 53.62784 34844 ft 468 kts 25°
2026-03-25 13:30 15.58195 53.66456 34842 ft 468 kts 25°
2026-03-25 13:30 15.63662 53.70115 34844 ft 467 kts 25°
2026-03-25 13:31 15.69094 53.73738 34847 ft 467 kts 25°
2026-03-25 13:31 15.74561 53.77377 34849 ft 467 kts 25°
2026-03-25 13:32 15.80023 53.81021 34848 ft 467 kts 25°
2026-03-25 13:32 15.85486 53.84674 34846 ft 467 kts 25°
2026-03-25 13:33 15.90959 53.88323 34847 ft 466 kts 24°
2026-03-25 13:33 15.96434 53.91929 34847 ft 466 kts 24°
2026-03-25 13:34 16.01916 53.95531 34844 ft 466 kts 24°
2026-03-25 13:34 16.07399 53.99152 34845 ft 467 kts 24°
2026-03-25 13:35 16.12879 54.02770 34843 ft 467 kts 24°
2026-03-25 13:35 16.18358 54.06391 34846 ft 466 kts 24°
2026-03-25 13:36 16.23830 54.10012 34848 ft 466 kts 24°
2026-03-25 13:36 16.29263 54.13611 34849 ft 466 kts 24°
2026-03-25 13:37 16.34722 54.17233 34847 ft 465 kts 24°
2026-03-25 13:37 16.40181 54.20860 34849 ft 465 kts 24°
2026-03-25 13:38 16.45637 54.24480 34840 ft 465 kts 24°
2026-03-25 13:38 16.51101 54.28104 34840 ft 465 kts 24°
2026-03-25 13:39 16.56555 54.31722 34841 ft 464 kts 24°
2026-03-25 13:39 16.62003 54.35341 34843 ft 464 kts 24°
2026-03-25 13:40 16.67447 54.38964 34842 ft 464 kts 24°
2026-03-25 13:40 16.72901 54.42598 34841 ft 465 kts 24°
2026-03-25 13:41 16.78352 54.46230 34844 ft 465 kts 24°
2026-03-25 13:41 16.83803 54.49864 34843 ft 465 kts 24°
2026-03-25 13:42 16.89266 54.53505 34852 ft 466 kts 24°
2026-03-25 13:42 16.94725 54.57152 34866 ft 466 kts 24°
2026-03-25 13:43 17.00184 54.60799 34869 ft 466 kts 24°
2026-03-25 13:43 17.05649 54.64447 34866 ft 466 kts 24°
2026-03-25 13:44 17.11078 54.68075 34865 ft 466 kts 23°
2026-03-25 13:44 17.16541 54.71730 34863 ft 466 kts 23°
2026-03-25 13:45 17.21995 54.75385 34857 ft 465 kts 23°
2026-03-25 13:45 17.27489 54.78921 34848 ft 457 kts 17°
2026-03-25 13:46 17.33277 54.81544 34850 ft 452 kts 14°
2026-03-25 13:46 17.39066 54.84112 34844 ft 452 kts 13°
2026-03-25 13:47 17.44852 54.86686 34836 ft 452 kts 14°
2026-03-25 13:47 17.50642 54.89276 34831 ft 452 kts 13°
2026-03-25 13:48 17.56428 54.91867 34825 ft 452 kts 13°
2026-03-25 13:48 17.62226 54.94463 34817 ft 452 kts 13°
2026-03-25 13:49 17.68010 54.97049 34813 ft 452 kts 13°
2026-03-25 13:49 17.73791 54.99627 34808 ft 451 kts 13°
2026-03-25 13:50 17.79527 55.02193 34802 ft 451 kts 13°
2026-03-25 13:50 17.85294 55.04782 34800 ft 451 kts 13°
2026-03-25 13:51 17.91060 55.07373 34793 ft 450 kts 13°
2026-03-25 13:51 17.96820 55.09962 34797 ft 450 kts 13°
2026-03-25 13:52 18.02581 55.12551 34794 ft 450 kts 13°
2026-03-25 13:52 18.08338 55.15141 34796 ft 450 kts 13°
2026-03-25 13:53 18.14093 55.17750 34791 ft 453 kts 16°
2026-03-25 13:53 18.19657 55.21016 34785 ft 459 kts 19°
2026-03-25 13:54 18.25207 55.24333 34796 ft 459 kts 19°
2026-03-25 13:54 18.30770 55.27652 34782 ft 459 kts 19°
2026-03-25 13:55 18.36322 55.30968 34782 ft 459 kts 19°
2026-03-25 13:55 18.41885 55.34286 34778 ft 459 kts 19°
2026-03-25 13:56 18.47449 55.37609 34774 ft 460 kts 19°
2026-03-25 13:56 18.52979 55.40917 34779 ft 460 kts 19°
2026-03-25 13:57 18.58544 55.44264 34781 ft 461 kts 19°
2026-03-25 13:57 18.64119 55.47618 34780 ft 461 kts 19°
2026-03-25 13:58 18.69698 55.50959 34783 ft 461 kts 19°
2026-03-25 13:58 18.75281 55.54301 34783 ft 462 kts 19°
2026-03-25 13:59 18.80858 55.57654 34784 ft 462 kts 19°
2026-03-25 13:59 18.86448 55.61013 34786 ft 462 kts 19°
2026-03-25 14:00 18.92035 55.64366 34785 ft 462 kts 19°
2026-03-25 14:00 18.97628 55.67733 34783 ft 463 kts 19°
2026-03-25 14:01 19.03221 55.71101 34788 ft 462 kts 19°
2026-03-25 14:01 19.08810 55.74475 34789 ft 462 kts 19°
2026-03-25 14:02 19.14391 55.77854 34792 ft 462 kts 19°
2026-03-25 14:02 19.19939 55.81213 34792 ft 462 kts 19°
2026-03-25 14:03 19.25560 55.84610 34787 ft 462 kts 18°
2026-03-25 14:03 19.31107 55.87964 34789 ft 462 kts 18°
2026-03-25 14:04 19.36676 55.91340 34795 ft 461 kts 18°
2026-03-25 14:04 19.42245 55.94718 34791 ft 461 kts 18°
2026-03-25 14:05 19.47811 55.98104 34794 ft 461 kts 18°
2026-03-25 14:05 19.53370 56.01476 34793 ft 460 kts 18°
2026-03-25 14:06 19.58930 56.04848 34792 ft 460 kts 18°
2026-03-25 14:06 19.64481 56.08224 34790 ft 460 kts 18°
2026-03-25 14:07 19.70035 56.11604 34791 ft 460 kts 18°
2026-03-25 14:07 19.75574 56.14983 34789 ft 460 kts 18°
2026-03-25 14:08 19.80186 56.17792 34791 ft 459 kts 18°
2026-03-25 14:08 19.86628 56.21718 34789 ft 459 kts 18°
2026-03-25 14:09 19.92164 56.25095 34794 ft 459 kts 18°
2026-03-25 14:09 19.96958 56.27294 35138 ft 436 kts
2026-03-25 14:10 19.99881 56.27934 35516 ft 423 kts 356°
2026-03-25 14:10 20.02774 56.28110 35732 ft 413 kts 350°
2026-03-25 14:10 20.08523 56.28121 35768 ft 412 kts 349°
2026-03-25 14:11 20.14217 56.28122 35769 ft 412 kts 349°
2026-03-25 14:11 20.19951 56.28129 35771 ft 412 kts 349°
2026-03-25 14:12 20.25677 56.28134 35771 ft 411 kts 349°
2026-03-25 14:12 20.31405 56.28149 35777 ft 412 kts 349°
2026-03-25 14:13 20.37140 56.28172 35782 ft 412 kts 349°
2026-03-25 14:13 20.42874 56.28183 35783 ft 412 kts 349°
2026-03-25 14:14 20.48626 56.28199 35784 ft 413 kts 349°
2026-03-25 14:14 20.54342 56.28213 35784 ft 413 kts 349°
2026-03-25 14:15 20.59964 56.27599 35785 ft 404 kts 342°
2026-03-25 14:15 20.65536 56.26789 35784 ft 405 kts 342°
2026-03-25 14:16 20.71125 56.25973 35782 ft 405 kts 342°
2026-03-25 14:16 20.76728 56.25157 35778 ft 406 kts 343°
2026-03-25 14:17 20.82302 56.24356 35779 ft 407 kts 343°
2026-03-25 14:17 20.87967 56.23540 35779 ft 408 kts 343°
2026-03-25 14:18 20.93560 56.22724 35780 ft 409 kts 343°
2026-03-25 14:18 20.99203 56.21907 35780 ft 410 kts 343°
2026-03-25 14:19 21.04863 56.21084 35779 ft 410 kts 343°
2026-03-25 14:19 21.10518 56.20254 35785 ft 411 kts 343°
2026-03-25 14:20 21.16185 56.19426 35785 ft 412 kts 343°
2026-03-25 14:20 21.21865 56.18605 35790 ft 412 kts 343°
2026-03-25 14:21 21.27555 56.17776 35789 ft 412 kts 343°
2026-03-25 14:21 21.33237 56.16938 35792 ft 413 kts 343°
2026-03-25 14:22 21.38934 56.16099 35796 ft 413 kts 343°
2026-03-25 14:22 21.44625 56.15268 35801 ft 413 kts 343°
2026-03-25 14:23 21.53175 56.14018 35796 ft 413 kts 343°
2026-03-25 14:24 21.58840 56.13183 35793 ft 413 kts 343°
2026-03-25 14:24 21.64542 56.12343 35796 ft 413 kts 342°
2026-03-25 14:25 21.70239 56.11495 35805 ft 413 kts 342°
2026-03-25 14:25 21.75933 56.10657 35805 ft 413 kts 342°
2026-03-25 14:26 21.81631 56.09823 35811 ft 413 kts 342°
2026-03-25 14:26 21.87329 56.08989 35817 ft 413 kts 342°
2026-03-25 14:27 21.93012 56.08155 35818 ft 412 kts 342°
2026-03-25 14:27 21.98697 56.07314 35813 ft 412 kts 342°
2026-03-25 14:28 22.04378 56.06464 35814 ft 412 kts 342°
2026-03-25 14:28 22.10052 56.05619 35808 ft 412 kts 342°
2026-03-25 14:29 22.15730 56.04782 35818 ft 411 kts 342°
2026-03-25 14:29 22.21402 56.03945 35818 ft 411 kts 342°
2026-03-25 14:30 22.27069 56.03100 35819 ft 411 kts 342°
2026-03-25 14:30 22.32706 56.02264 35820 ft 411 kts 342°
2026-03-25 14:31 22.38378 56.01422 35821 ft 411 kts 342°
2026-03-25 14:31 22.44058 56.00591 35821 ft 412 kts 342°
2026-03-25 14:32 22.49732 55.99756 35818 ft 412 kts 342°
2026-03-25 14:32 22.55411 55.98919 35817 ft 412 kts 342°
2026-03-25 14:33 22.61090 55.98079 35822 ft 412 kts 342°
2026-03-25 14:33 22.66763 55.97234 35820 ft 412 kts 342°
2026-03-25 14:34 22.72443 55.96390 35825 ft 412 kts 342°
2026-03-25 14:34 22.78116 55.95550 35824 ft 412 kts 342°
2026-03-25 14:35 22.83799 55.94714 35828 ft 412 kts 342°
2026-03-25 14:35 22.89474 55.93867 35828 ft 412 kts 342°
2026-03-25 14:36 22.95109 55.93021 35826 ft 411 kts 341°
2026-03-25 14:36 23.00779 55.92172 35826 ft 411 kts 342°
2026-03-25 14:37 23.06451 55.91319 35818 ft 411 kts 341°
2026-03-25 14:37 23.12123 55.90463 35821 ft 412 kts 342°
2026-03-25 14:38 23.17798 55.89611 35819 ft 412 kts 342°
2026-03-25 14:38 23.23482 55.88750 35828 ft 412 kts 341°
2026-03-25 14:39 23.29168 55.87883 35833 ft 413 kts 341°
2026-03-25 14:39 23.34855 55.87024 35830 ft 413 kts 341°
2026-03-25 14:40 23.40548 55.86165 35834 ft 413 kts 341°
2026-03-25 14:40 23.46246 55.85303 35837 ft 413 kts 341°
2026-03-25 14:41 23.51948 55.84447 35839 ft 414 kts 341°
2026-03-25 14:41 23.57654 55.83582 35840 ft 413 kts 341°
2026-03-25 14:42 23.63358 55.82709 35843 ft 414 kts 341°
2026-03-25 14:42 23.69026 55.81862 35843 ft 417 kts 344°
2026-03-25 14:42 23.71980 55.81847 35845 ft 432 kts 353°
2026-03-25 14:43 23.74976 55.82160 35846 ft 433 kts 354°
2026-03-25 14:43 23.80986 55.82795 35846 ft 433 kts 353°
2026-03-25 14:44 23.86983 55.83425 35847 ft 433 kts 353°
2026-03-25 14:44 23.92980 55.84045 35846 ft 433 kts 353°
2026-03-25 14:45 23.98976 55.84667 35630 ft 433 kts 353°
2026-03-25 14:45 24.02008 55.84979 34577 ft 444 kts 354°
2026-03-25 14:45 24.05102 55.85292 33662 ft 451 kts 355°
2026-03-25 14:45 24.08208 55.85611 32712 ft 456 kts 356°
2026-03-25 14:46 24.11380 55.85944 31774 ft 461 kts 357°
2026-03-25 14:46 24.14632 55.86290 30842 ft 465 kts 357°
2026-03-25 14:46 24.17870 55.86636 29778 ft 472 kts 358°
2026-03-25 14:46 24.21169 55.86985 28555 ft 479 kts 359°
2026-03-25 14:47 24.24459 55.87336 27443 ft 483 kts 359°
2026-03-25 14:47 24.27825 55.87694 26176 ft 490 kts 360°
2026-03-25 14:47 24.31241 55.88078 24931 ft 497 kts
2026-03-25 14:47 24.34686 55.88585 23719 ft 504 kts
2026-03-25 14:48 24.38152 55.89304 22446 ft 512 kts 12°
2026-03-25 14:48 24.41533 55.90455 21749 ft 502 kts 13°
2026-03-25 14:48 24.44849 55.91542 20876 ft 494 kts 11°
2026-03-25 14:48 24.48138 55.92541 20024 ft 487 kts 10°
2026-03-25 14:49 24.51396 55.93471 19221 ft 481 kts
2026-03-25 14:49 24.54621 55.94368 18444 ft 474 kts
2026-03-25 14:49 24.57796 55.95254 17607 ft 469 kts
2026-03-25 14:49 24.60934 55.96144 16760 ft 462 kts
2026-03-25 14:50 24.63998 55.97029 15605 ft 448 kts
2026-03-25 14:50 24.67011 55.97911 14561 ft 448 kts 10°
2026-03-25 14:50 24.69986 55.98790 14122 ft 435 kts
2026-03-25 14:50 24.72841 55.99643 14002 ft 415 kts
2026-03-25 14:51 24.75566 56.00455 13889 ft 397 kts
2026-03-25 14:51 24.78174 56.01225 13771 ft 380 kts
2026-03-25 14:51 24.80673 56.01961 13666 ft 364 kts
2026-03-25 14:51 24.83072 56.02666 13528 ft 350 kts
2026-03-25 14:52 24.85383 56.03343 13405 ft 338 kts
2026-03-25 14:52 24.87626 56.03999 13277 ft 328 kts
2026-03-25 14:52 24.89796 56.04635 13143 ft 316 kts
2026-03-25 14:52 24.91884 56.05248 13000 ft 305 kts
2026-03-25 14:53 24.93909 56.05829 12453 ft 296 kts
2026-03-25 14:53 24.95891 56.05920 12042 ft 276 kts 344°
2026-03-25 14:53 24.97701 56.05393 11951 ft 266 kts 329°
2026-03-25 14:53 24.99257 56.04376 11803 ft 256 kts 314°
2026-03-25 14:54 25.00492 56.02998 11666 ft 252 kts 306°
2026-03-25 14:54 25.01661 56.01561 11528 ft 252 kts 306°
2026-03-25 14:54 25.02829 56.00128 11390 ft 251 kts 306°
2026-03-25 14:54 25.03995 55.98699 11255 ft 251 kts 306°
2026-03-25 14:55 25.05162 55.97273 11114 ft 250 kts 306°
2026-03-25 14:55 25.06327 55.95849 10977 ft 250 kts 306°
2026-03-25 14:55 25.07478 55.94441 10846 ft 250 kts 306°
2026-03-25 14:55 25.08641 55.93016 10711 ft 250 kts 306°
2026-03-25 14:56 25.09803 55.91591 10562 ft 249 kts 306°
2026-03-25 14:56 25.10961 55.90168 10407 ft 249 kts 306°
2026-03-25 14:56 25.12121 55.88741 10286 ft 250 kts 306°
2026-03-25 14:56 25.13183 55.87253 10156 ft 244 kts 292°
2026-03-25 14:57 25.13619 55.85491 10028 ft 238 kts 269°
2026-03-25 14:57 25.13319 55.83708 9758 ft 241 kts 247°
2026-03-25 14:57 25.12713 55.82666 9433 ft 248 kts 229°
2026-03-25 14:57 25.11325 55.81512 9025 ft 256 kts 216°
2026-03-25 14:58 25.09820 55.80492 8787 ft 250 kts 216°
2026-03-25 14:58 25.08339 55.79508 8282 ft 248 kts 215°
2026-03-25 14:58 25.06867 55.78530 7778 ft 246 kts 215°
2026-03-25 14:58 25.05462 55.77473 7221 ft 243 kts 229°
2026-03-25 14:59 25.04607 55.75920 6729 ft 238 kts 254°
2026-03-25 14:59 25.04537 55.74107 6190 ft 241 kts 281°
2026-03-25 14:59 25.05260 55.72402 5773 ft 250 kts 299°
2026-03-25 14:59 25.06180 55.70784 5492 ft 249 kts 298°
2026-03-25 15:00 25.07081 55.69166 5261 ft 245 kts 297°
2026-03-25 15:00 25.07952 55.67587 5134 ft 237 kts 298°
2026-03-25 15:00 25.08801 55.66064 5029 ft 228 kts 298°
2026-03-25 15:00 25.09617 55.64603 4928 ft 219 kts 297°
2026-03-25 15:01 25.10408 55.63183 4800 ft 215 kts 297°
2026-03-25 15:01 25.11186 55.61787 4562 ft 213 kts 297°
2026-03-25 15:01 25.11965 55.60389 4276 ft 213 kts 297°
2026-03-25 15:01 25.12740 55.58999 4010 ft 213 kts 297°
2026-03-25 15:02 25.13515 55.57608 3733 ft 212 kts 297°
2026-03-25 15:02 25.14288 55.56221 3456 ft 212 kts 297°
2026-03-25 15:02 25.15060 55.54835 3186 ft 212 kts 297°
2026-03-25 15:02 25.15818 55.53474 2934 ft 208 kts 297°
2026-03-25 15:03 25.16562 55.52140 2650 ft 201 kts 297°
2026-03-25 15:03 25.17283 55.50844 2380 ft 195 kts 297°
2026-03-25 15:03 25.17992 55.49569 2125 ft 189 kts 298°
2026-03-25 15:03 25.18659 55.48370 1871 ft 181 kts 298°
2026-03-25 15:04 25.19290 55.47238 1689 ft 163 kts 298°
2026-03-25 15:04 25.19856 55.46219 1457 ft 150 kts 299°
2026-03-25 15:04 25.20391 55.45255 1269 ft 145 kts 299°
2026-03-25 15:04 25.20918 55.44304 1078 ft 145 kts 300°
2026-03-25 15:05 25.21444 55.43357 893 ft 144 kts 300°
2026-03-25 15:05 25.21968 55.42415 710 ft 144 kts 301°
2026-03-25 15:05 25.22489 55.41476 524 ft 143 kts 302°
2026-03-25 15:05 25.23008 55.40541 331 ft 142 kts 303°
2026-03-25 15:06 25.23521 55.39617 83 ft 142 kts 303°
2026-03-25 15:06 25.24024 55.38719 23 ft 121 kts 301°
2026-03-25 15:06 25.24303 55.38208 22 ft 44 kts 301°
2026-03-25 15:06 25.24440 55.37967 23 ft 33 kts 301°
2026-03-25 15:07 25.24559 55.37745 22 ft 34 kts 296°
2026-03-25 15:07 25.24614 55.37502 22 ft 25 kts 271°
2026-03-25 15:07 25.24622 55.37333 22 ft 23 kts 274°
2026-03-25 15:07 25.24672 55.37176 22 ft 17 kts 300°
2026-03-25 15:08 25.24738 55.37052 25 ft 20 kts 301°
2026-03-25 15:08 25.24806 55.36917 22 ft 18 kts 272°
2026-03-25 15:08 25.24716 55.36821 22 ft 20 kts 210°
2026-03-25 15:08 25.24589 55.36737 22 ft 21 kts 212°
2026-03-25 15:09 25.24470 55.36632 23 ft 22 kts 236°
2026-03-25 15:09 25.24471 55.36476 23 ft 17 kts 303°
2026-03-25 15:09 25.24533 55.36353 22 ft 20 kts 300°
2026-03-25 15:09 25.24609 55.36275 24 ft 13 kts 12°
2026-03-25 15:10 25.24665 55.36310 22 ft 0 kts 31°